contact:dominique.lefevre@mio.osupytheas.fr, maurice.libes@osupytheas.fr
Project:EMSO Ligure-ouest http://www.emso-fr.org/EMSO-France
Sensor Aquadopp, line 13 Serial AQD14315 
DOI : "https://doi.org/10.17882/74513; https://doi.org/10.17882/83244" 
Title:EMSO Ligure Ouest : Data ligne ALBATROSS capteur AQUADOPP - deploiement 2021
Id,Date,Profondeur,Latitude,Longitude,X_East,Y_North,Z_Up,Amplitude_X,Amplitude_Y,Amplitude_Z,Batterie,SoundSpeed,Heading,Pitch,Roll,Pressure,Temperature,Speed,Direction
, , m, degrees North, degrees East, m.s-1, m.s-1,m.s-1, 1, 1, 1, Volt, m.s-1, degree, degree, degree, dbar, degree_C, m.s-1, degree
13,2022-02-21T22:00:00,2400.0,42.79,6.0312,-0.005,-0.019,-0.028,73.0,65.0,66.0,12.2,1504.8,162.0,-0.1,-0.2,2394.617,13.33,0.019,194.7
13,2022-02-21T22:30:00,2400.0,42.79,6.0312,0.0,-0.03,0.005,75.0,66.0,70.0,12.2,1504.8,166.4,-0.2,-0.3,2394.656,13.33,0.03,180.0
13,2022-02-21T23:00:00,2400.0,42.79,6.0312,0.0,-0.022,-0.016,71.0,65.0,66.0,12.2,1504.8,166.0,-0.4,-0.1,2394.535,13.33,0.022,180.0
13,2022-02-21T23:30:00,2400.0,42.79,6.0312,-0.004,-0.036,-0.019,70.0,60.0,62.0,12.2,1504.8,159.4,-0.1,-0.3,2394.572,13.33,0.036,186.3
13,2022-02-22T00:00:00,2400.0,42.79,6.0312,-0.016,-0.035,-0.03,70.0,65.0,64.0,12.2,1504.8,162.3,-0.2,-0.2,2394.557,13.33,0.038,204.6
13,2022-02-22T00:30:00,2400.0,42.79,6.0312,-0.007,-0.039,0.012,71.0,66.0,68.0,12.2,1504.8,163.1,-0.2,-0.1,2394.535,13.33,0.039,190.2
13,2022-02-22T01:00:00,2400.0,42.79,6.0312,0.001,-0.035,0.005,71.0,63.0,65.0,12.2,1504.8,161.4,-0.2,-0.3,2394.504,13.33,0.035,178.4
13,2022-02-22T01:30:00,2400.0,42.79,6.0312,0.0,-0.046,0.0,71.0,65.0,67.0,12.2,1504.8,163.9,-0.3,-0.1,2394.485,13.33,0.046,180.0
13,2022-02-22T02:00:00,2400.0,42.79,6.0312,0.005,-0.055,-0.022,68.0,65.0,66.0,12.2,1504.8,162.7,-0.3,-0.2,2394.509,13.33,0.055,174.8
13,2022-02-22T02:30:00,2400.0,42.79,6.0312,0.038,-0.042,0.006,71.0,68.0,66.0,12.2,1504.8,160.1,-0.3,-0.2,2394.469,13.33,0.056,137.9
13,2022-02-22T03:00:00,2400.0,42.79,6.0312,0.008,-0.013,0.0,74.0,67.0,72.0,12.2,1504.8,160.6,-0.2,-0.2,2394.474,13.33,0.015,148.4
13,2022-02-22T03:30:00,2400.0,42.79,6.0312,0.003,-0.04,-0.03,73.0,66.0,70.0,12.2,1504.8,148.6,-0.3,-0.3,2394.485,13.33,0.04,175.7
13,2022-02-22T04:00:00,2400.0,42.79,6.0312,0.016,-0.041,0.002,72.0,66.0,66.0,12.2,1504.8,151.4,-0.3,-0.2,2394.487,13.33,0.044,158.7
13,2022-02-22T04:30:00,2400.0,42.79,6.0312,0.009,-0.04,-0.019,73.0,65.0,65.0,12.2,1504.8,151.3,-0.2,-0.3,2394.413,13.33,0.041,167.3
13,2022-02-22T05:00:00,2400.0,42.79,6.0312,0.006,-0.022,-0.044,73.0,64.0,66.0,12.2,1504.8,149.7,0.0,-0.3,2394.443,13.33,0.022,164.7
13,2022-02-22T05:30:00,2400.0,42.79,6.0312,0.016,-0.06,-0.028,69.0,63.0,65.0,12.2,1504.8,156.8,-0.3,-0.2,2394.453,13.33,0.062,165.1
13,2022-02-22T06:00:00,2400.0,42.79,6.0312,0.025,-0.045,0.016,69.0,63.0,64.0,12.2,1504.8,148.6,-0.1,-0.2,2394.423,13.33,0.051,150.9
13,2022-02-22T06:30:00,2400.0,42.79,6.0312,0.041,-0.033,-0.001,69.0,66.0,67.0,12.2,1504.8,124.5,-0.2,-0.2,2394.477,13.33,0.052,128.8
13,2022-02-22T07:00:00,2400.0,42.79,6.0312,0.009,-0.065,0.02,76.0,70.0,69.0,12.2,1504.8,139.3,-0.4,-0.3,2394.5,13.33,0.065,172.1
13,2022-02-22T07:30:00,2400.0,42.79,6.0312,-0.031,-0.054,-0.041,74.0,65.0,66.0,12.2,1504.8,150.5,-0.5,-0.3,2394.439,13.33,0.062,209.9
13,2022-02-22T08:00:00,2400.0,42.79,6.0312,-0.015,-0.043,-0.004,74.0,65.0,69.0,12.2,1504.8,150.2,-0.5,-0.3,2394.535,13.33,0.045,199.2
13,2022-02-22T08:30:00,2400.0,42.79,6.0312,0.003,-0.053,0.007,79.0,70.0,70.0,12.2,1504.8,149.3,-0.5,-0.3,2394.526,13.33,0.053,176.8
13,2022-02-22T09:00:00,2400.0,42.79,6.0312,0.015,-0.035,-0.014,75.0,66.0,69.0,12.2,1504.8,145.0,-0.2,-0.2,2394.543,13.33,0.038,156.8
13,2022-02-22T09:30:00,2400.0,42.79,6.0312,0.0,-0.048,-0.025,78.0,69.0,73.0,12.2,1504.8,144.4,-0.2,-0.2,2394.575,13.33,0.048,180.0
13,2022-02-22T10:00:00,2400.0,42.79,6.0312,-0.026,-0.037,0.013,79.0,70.0,75.0,12.2,1504.8,143.8,-0.5,-0.3,2394.642,13.33,0.045,215.1
13,2022-02-22T10:30:00,2400.0,42.79,6.0312,0.013,-0.047,-0.009,75.0,69.0,68.0,12.2,1504.8,134.0,-0.2,-0.1,2394.604,13.33,0.048,164.5
13,2022-02-22T11:00:00,2400.0,42.79,6.0312,0.016,-0.038,0.015,72.0,67.0,67.0,12.2,1504.8,138.6,-0.3,-0.2,2394.589,13.33,0.041,157.2
13,2022-02-22T11:30:00,2400.0,42.79,6.0312,-0.013,-0.048,0.003,72.0,66.0,67.0,12.2,1504.8,143.1,-0.2,-0.2,2394.592,13.33,0.049,195.2
13,2022-02-22T12:00:00,2400.0,42.79,6.0312,0.016,-0.024,-0.019,74.0,65.0,67.0,12.2,1504.8,139.3,-0.2,-0.3,2394.612,13.33,0.028,146.3
13,2022-02-22T12:30:00,2400.0,42.79,6.0312,-0.014,-0.007,-0.015,76.0,68.0,69.0,12.2,1504.8,140.5,-0.1,-0.1,2394.569,13.33,0.015,243.4
13,2022-02-22T13:00:00,2400.0,42.79,6.0312,0.0,-0.021,-0.009,76.0,70.0,72.0,12.2,1504.8,135.2,-0.1,-0.2,2394.59,13.33,0.021,180.0
13,2022-02-22T13:30:00,2400.0,42.79,6.0312,0.002,-0.035,-0.027,78.0,69.0,74.0,12.2,1504.8,133.1,-0.3,-0.2,2394.575,13.33,0.035,176.7
13,2022-02-22T14:00:00,2400.0,42.79,6.0312,-0.004,-0.021,0.015,80.0,69.0,72.0,12.2,1504.8,131.4,-0.2,-0.2,2394.526,13.33,0.021,190.8
13,2022-02-22T14:30:00,2400.0,42.79,6.0312,0.037,-0.027,-0.03,81.0,71.0,73.0,12.2,1504.8,132.1,-0.2,-0.3,2394.503,13.33,0.045,126.1
13,2022-02-22T15:00:00,2400.0,42.79,6.0312,0.0,-0.024,-0.026,76.0,69.0,74.0,12.2,1504.8,131.2,-0.2,-0.2,2394.463,13.33,0.024,180.0
13,2022-02-22T15:30:00,2400.0,42.79,6.0312,0.028,-0.019,-0.012,77.0,70.0,71.0,12.2,1504.8,127.1,-0.2,-0.2,2394.447,13.33,0.033,124.2
13,2022-02-22T16:00:00,2400.0,42.79,6.0312,0.013,0.006,-0.023,80.0,71.0,74.0,12.2,1504.8,118.4,-0.2,-0.3,2394.461,13.33,0.014,65.2
13,2022-02-22T16:30:00,2400.0,42.79,6.0312,0.0,-0.012,0.016,79.0,71.0,74.0,12.2,1504.8,109.2,-0.1,-0.3,2394.457,13.33,0.012,180.0
13,2022-02-22T17:00:00,2400.0,42.79,6.0312,0.0,-0.003,-0.008,79.0,69.0,76.0,12.2,1504.8,108.2,-0.1,-0.3,2394.472,13.33,0.003,180.0
13,2022-02-22T17:30:00,2400.0,42.79,6.0312,0.03,-0.003,0.005,81.0,75.0,72.0,12.2,1504.8,102.2,-0.2,-0.2,2394.431,13.33,0.03,95.7
13,2022-02-22T18:00:00,2400.0,42.79,6.0312,0.011,-0.007,-0.023,78.0,72.0,76.0,12.2,1504.8,97.9,-0.1,-0.2,2394.449,13.33,0.013,122.5
13,2022-02-22T18:30:00,2400.0,42.79,6.0312,0.025,-0.017,-0.001,81.0,70.0,74.0,12.2,1504.8,94.7,-0.2,-0.3,2394.447,13.33,0.03,124.2
13,2022-02-22T19:00:00,2400.0,42.79,6.0312,0.024,-0.01,-0.02,81.0,71.0,75.0,12.2,1504.8,93.5,-0.1,-0.4,2394.465,13.33,0.026,112.6
13,2022-02-22T19:30:00,2400.0,42.79,6.0312,0.049,-0.014,-0.001,77.0,71.0,71.0,12.2,1504.8,90.2,0.1,-0.3,2394.441,13.33,0.05,105.9
13,2022-02-22T20:00:00,2400.0,42.79,6.0312,0.036,-0.009,-0.036,80.0,69.0,74.0,12.2,1504.8,84.6,0.1,-0.3,2394.466,13.33,0.037,104.0
13,2022-02-22T20:30:00,2400.0,42.79,6.0312,0.021,0.004,-0.018,80.0,71.0,71.0,12.2,1504.8,82.2,-0.1,-0.2,2394.511,13.33,0.021,79.2
13,2022-02-22T21:00:00,2400.0,42.79,6.0312,0.017,-0.033,-0.008,78.0,71.0,72.0,12.2,1504.8,74.7,-0.1,-0.3,2394.535,13.33,0.037,152.7
13,2022-02-22T21:30:00,2400.0,42.79,6.0312,0.045,0.015,-0.016,78.0,74.0,74.0,12.2,1504.8,63.3,0.0,-0.5,2394.559,13.33,0.047,71.6
